| time (UTC) | temp F | wind direction | speed MPH | gust MPH | rain 1hr in | rain 24hr in | rain mn in | humidity % | barometer mb |
| 20260506044516 | 57 | 281 | 0.0 | 2.0 | 0.24 | 0.65 | 0.43 | 95 | 1011.3 |
| 20260506043028 | 57 | 217 | 0.0 | 7.0 | 0.21 | 0.62 | 0.40 | 95 | 1011.8 |
| 20260506041539 | 58 | 259 | 3.0 | 8.0 | 0.11 | 0.51 | 0.29 | 95 | 1011.8 |
| 20260506040026 | 58 | 257 | 6.0 | 12.0 | 0.03 | 0.43 | 0.21 | 95 | 1011.9 |
| 20260506034532 | 58 | 227 | 2.0 | 4.0 | 0.03 | 0.40 | 0.18 | 94 | 1011.5 |
| 20260506033018 | 58 | 11 | 0.0 | 1.0 | 0.13 | 0.40 | 0.18 | 94 | 1011.0 |
| 20260506031514 | 58 | 88 | 2.0 | 8.0 | 0.13 | 0.40 | 0.18 | 94 | 1010.9 |
| 20260506030029 | 58 | 102 | 7.0 | 8.0 | 0.12 | 0.40 | 0.18 | 94 | 1011.0 |
| 20260506024529 | 58 | 288 | 2.0 | 5.0 | 0.10 | 0.37 | 0.14 | 93 | 1011.5 |
| 20260506023025 | 58 | 268 | 5.0 | 8.0 | 0.00 | 0.27 | 0.05 | 93 | 1011.8 |
| 20260506021522 | 58 | 304 | 3.0 | 5.0 | 0.01 | 0.27 | 0.05 | 93 | 1011.6 |
| 20260506020022 | 58 | 282 | 1.0 | 3.0 | 0.04 | 0.27 | 0.05 | 92 | 1011.8 |
| 20260506014522 | 58 | 297 | 0.0 | 2.0 | 0.04 | 0.26 | 0.04 | 92 | 1011.9 |
| 20260506013038 | 58 | 308 | 2.0 | 4.0 | 0.04 | 0.26 | 0.04 | 92 | 1011.8 |
| 20260506011515 | 59 | 12 | 3.0 | 4.0 | 0.03 | 0.25 | 0.03 | 92 | 1011.6 |
| 20260506010005 | 59 | 307 | 0.0 | 2.0 | 0.00 | 0.22 | 0.00 | 92 | 1012.2 |
| 20260506004504 | 59 | 304 | 1.0 | 2.0 | 0.00 | 0.22 | 0.00 | 92 | 1012.2 |
| 20260506003003 | 59 | 291 | 0.0 | 2.0 | 0.00 | 0.22 | 0.00 | 91 | 1012.1 |
| 20260506001503 | 59 | 291 | 0.0 | 2.0 | 0.00 | 0.22 | 0.00 | 91 | 1012.2 |
| 20260506000004 | 59 | 243 | 0.0 | 1.0 | 0.00 | 0.22 | 0.00 | 91 | 1012.2 |
| 20260505234502 | 59 | 226 | 0.0 | 1.0 | 0.00 | 0.22 | 0.00 | 91 | 1012.2 |
| 20260505233003 | 59 | 257 | 1.0 | 3.0 | 0.00 | 0.22 | 0.00 | 90 | 1012.2 |
| 20260505231504 | 59 | 295 | 4.0 | 5.0 | 0.00 | 0.22 | 0.00 | 90 | 1012.2 |
| 20260505230007 | 59 | 268 | 3.0 | 5.0 | 0.00 | 0.22 | 0.00 | 88 | 1012.4 |
| 20260505224509 | 60 | 217 | 0.0 | 2.0 | 0.00 | 0.22 | 0.00 | 86 | 1012.2 |
| 20260505223006 | 60 | 233 | 0.0 | 4.0 | 0.00 | 0.22 | 0.00 | 85 | 1012.5 |
| 20260505221504 | 61 | 223 | 3.0 | 5.0 | 0.00 | 0.22 | 0.00 | 84 | 1012.6 |
| 20260505220015 | 61 | 257 | 1.0 | 6.0 | 0.00 | 0.22 | 0.00 | 84 | 1012.7 |
| 20260505214507 | 61 | 236 | 5.0 | 8.0 | 0.00 | 0.22 | 0.22 | 83 | 1012.7 |
| 20260505213006 | 62 | 203 | 5.0 | 10.0 | 0.00 | 0.22 | 0.22 | 82 | 1012.7 |
| 20260505211506 | 62 | 226 | 5.0 | 8.0 | 0.00 | 0.22 | 0.22 | 82 | 1012.6 |
| 20260505210009 | 62 | 191 | 4.0 | 8.0 | 0.00 | 0.22 | 0.22 | 82 | 1012.7 |
| 20260505204508 | 62 | 206 | 3.0 | 8.0 | 0.00 | 0.22 | 0.22 | 81 | 1012.5 |
| 20260505203012 | 62 | 166 | 3.0 | 9.0 | 0.00 | 0.22 | 0.22 | 81 | 1012.4 |
| 20260505201508 | 63 | 207 | 4.0 | 7.0 | 0.00 | 0.22 | 0.22 | 81 | 1012.3 |
| 20260505200015 | 63 | 144 | 3.0 | 8.0 | 0.00 | 0.22 | 0.22 | 80 | 1012.3 |
| 20260505194505 | 63 | 197 | 1.0 | 8.0 | 0.00 | 0.22 | 0.22 | 80 | 1012.2 |
| 20260505193015 | 64 | 179 | 2.0 | 5.0 | 0.00 | 0.22 | 0.22 | 79 | 1012.1 |
| 20260505191524 | 65 | 180 | 3.0 | 8.0 | 0.00 | 0.22 | 0.22 | 78 | 1011.9 |
| 20260505190013 | 65 | 92 | 5.0 | 9.0 | 0.00 | 0.22 | 0.22 | 78 | 1011.8 |
| 20260505184512 | 66 | 151 | 3.0 | 9.0 | 0.00 | 0.22 | 0.22 | 77 | 1011.7 |
| 20260505183012 | 66 | 164 | 3.0 | 8.0 | 0.00 | 0.22 | 0.22 | 77 | 1011.8 |
| 20260505181508 | 67 | 116 | 3.0 | 12.0 | 0.00 | 0.22 | 0.22 | 76 | 1011.6 |
| 20260505180015 | 67 | 126 | 5.0 | 10.0 | 0.00 | 0.22 | 0.22 | 75 | 1011.6 |
| 20260505174519 | 68 | 117 | 6.0 | 11.0 | 0.00 | 0.22 | 0.22 | 74 | 1011.6 |
| 20260505173016 | 70 | 99 | 5.0 | 8.0 | 0.00 | 0.22 | 0.22 | 73 | 1011.7 |
| 20260505171518 | 70 | 169 | 2.0 | 8.0 | 0.00 | 0.22 | 0.22 | 71 | 1011.6 |
| 20260505170015 | 71 | 136 | 4.0 | 11.0 | 0.00 | 0.22 | 0.22 | 68 | 1011.4 |
| 20260505164514 | 72 | 205 | 4.0 | 9.0 | 0.00 | 0.22 | 0.22 | 67 | 1011.4 |
| 20260505163018 | 72 | 172 | 2.0 | 8.0 | 0.00 | 0.22 | 0.22 | 68 | 1011.2 |
| 20260505161509 | 72 | 119 | 4.0 | 9.0 | 0.00 | 0.22 | 0.22 | 69 | 1011.4 |
| 20260505153018 | 72 | 139 | 4.0 | 9.0 | 0.00 | 0.22 | 0.22 | 69 | 1011.7 |
| 20260505151515 | 71 | 214 | 4.0 | 9.0 | 0.00 | 0.22 | 0.22 | 71 | 1011.8 |
| 20260505124510 | 66 | 116 | 14.0 | 17.0 | 0.00 | 0.22 | 0.22 | 78 | 1012.9 |
| 20260505123023 | 66 | 130 | 11.0 | 17.0 | 0.00 | 0.22 | 0.22 | 79 | 1013.1 |
| 20260505121532 | 66 | 105 | 12.0 | 16.0 | 0.00 | 0.22 | 0.22 | 78 | 1013.2 |
| 20260505120018 | 65 | 96 | 10.0 | 17.0 | 0.00 | 0.22 | 0.22 | 79 | 1013.2 |
| 20260505114516 | 66 | 107 | 10.0 | 16.0 | 0.00 | 0.22 | 0.22 | 74 | 1013.3 |
| 20260505113013 | 67 | 110 | 9.0 | 13.0 | 0.00 | 0.22 | 0.22 | 76 | 1013.5 |
| 20260505111508 | 64 | 111 | 7.0 | 10.0 | 0.00 | 0.22 | 0.22 | 78 | 1013.7 |
| 20260505101520 | 62 | 148 | 6.0 | 11.0 | 0.00 | 0.22 | 0.22 | 84 | 1014.0 |
| 20260505100018 | 60 | 108 | 6.0 | 10.0 | 0.00 | 0.22 | 0.22 | 91 | 1014.0 |
| 20260505094513 | 59 | 101 | 7.0 | 9.0 | 0.00 | 0.22 | 0.22 | 94 | 1014.1 |
| 20260505093027 | 58 | 98 | 6.0 | 12.0 | 0.02 | 0.22 | 0.22 | 94 | 1014.3 |
| 20260505091532 | 58 | 100 | 12.0 | 15.0 | 0.02 | 0.22 | 0.22 | 94 | 1014.3 |
| 20260505090037 | 58 | 98 | 9.0 | 12.0 | 0.01 | 0.21 | 0.21 | 94 | 1014.3 |
| 20260505084522 | 57 | 89 | 5.0 | 7.0 | 0.01 | 0.21 | 0.21 | 94 | 1014.6 |
| 20260505083015 | 57 | 122 | 5.0 | 10.0 | 0.01 | 0.19 | 0.19 | 94 | 1014.6 |
| 20260505081515 | 57 | 107 | 6.0 | 9.0 | 0.07 | 0.19 | 0.19 | 94 | 1014.4 |
| 20260505080041 | 56 | 102 | 6.0 | 8.0 | 0.14 | 0.19 | 0.19 | 93 | 1014.3 |
| 20260505074506 | 56 | 103 | 3.0 | 7.0 | 0.19 | 0.19 | 0.19 | 93 | 1014.3 |
| 20260505073004 | 56 | 89 | 3.0 | 4.0 | 0.18 | 0.18 | 0.18 | 92 | 1014.5 |
| 20260505071504 | 57 | 155 | 0.0 | 2.0 | 0.12 | 0.12 | 0.12 | 86 | 1014.7 |
| 20260505070020 | 58 | 153 | 0.0 | 5.0 | 0.05 | 0.05 | 0.05 | 83 | 1014.7 |
| 20260505064521 | 59 | 155 | 2.0 | 6.0 | 0.00 | 0.00 | 0.00 | 79 | 1014.5 |
| 20260505063015 | 59 | 107 | 3.0 | 7.0 | 0.00 | 0.00 | 0.00 | 80 | 1014.3 |
| 20260505061509 | 59 | 103 | 3.0 | 4.0 | 0.00 | 0.00 | 0.00 | 80 | 1014.0 |
| 20260505060008 | 58 | 90 | 1.0 | 3.0 | 0.00 | 0.00 | 0.00 | 81 | 1014.0 |
| 20260505054506 | 58 | 153 | 1.0 | 3.0 | 0.00 | 0.00 | 0.00 | 81 | 1014.0 |
| 20260505053026 | 57 | 162 | 0.0 | 1.0 | 0.00 | 0.00 | 0.00 | 81 | 1014.1 |